Temp
76 75 76 75 75 76 76 76 76 75 73 72 71 71 75 65 70 68 65 64 67 74 75 78 77 74 76 77 78 78 78 80 81 79 78 77 77 77 76 76 75 75 75 75 75 76 77 77 77 77 77 77 77 78 78 78 77 77 76 76 77 76 76 74 72 72 71 71 70 70 69 70 70 71
75 76 76 76 76 77 76 76 77 76 74 73 72 73 70 71 75 66 70 66 65 69 71 75 78 76 78 80 81 80 80 80 81 78 77 77 78 76 75 76 75 75 75 74 74 75 76 76 76 76 75 75 75 76 77 78 77 77 77 77 77 77 76 73 72 72 71 70 70 69 69 70 70 69
76 75 75 75 76 76 77 76 77 76 75 74 74 72 72 71 70 69 67 69 67 72 73 73 75 77 75 79 78 80 78 80 80 78 77 77 78 76 77 77 76 75 74 73 73 72 73 73 73 73 73 73 74 75 75 76 76 77 76 76 77 76 74 72 71 71 71 70 70 69 69 69 69 68
77 75 74 75 75 75 75 75 75 75 75 75 73 73 72 70 71 71 67 69 70 69 73 73 75 76 75 77 77 77 79 82 80 77 77 78 78 79 79 79 77 75 74 73 73 72 71 70 70 72 73 73 74 75 75 74 75 75 75 75 75 74 73 71 71 71 70 69 69 69 68 68 68 67
75 75 75 75 75 75 75 75 75 75 75 74 73 73 72 72 71 71 71 71 71 70 69 71 73 74 75 78 75 76 76 79 79 79 78 78 78 79 79 79 77 76 74 73 72 71 70 70 70 71 72 73 73 74 75 74 74 74 73 73 72 71 71 71 70 70 70 69 69 68 68 68 67 67
76 75 74 75 75 75 75 75 75 75 75 77 76 74 74 73 73 71 74 69 70 71 69 72 72 72 74 77 73 77 77 78 78 78 79 80 77 79 79 78 79 77 74 72 71 71 70 70 69 70 71 72 72 72 71 71 71 71 71 70 69 69 68 69 69 69 69 69 68 68 67 67 66 66
75 75 75 75 75 77 75 75 76 75 75 75 76 75 74 74 73 72 73 72 69 70 71 70 70 72 73 74 78 74 75 77 76 76 78 79 80 79 79 79 81 78 75 73 72 71 71 70 70 69 69 70 69 69 69 68 68 68 68 67 68 69 68 68 69 69 68 68 68 68 67 66 66 65
75 75 75 76 76 75 74 75 75 75 74 74 75 74 74 73 74 73 73 73 73 69 72 69 73 72 72 73 73 74 76 76 77 76 77 76 78 79 80 79 80 80 76 75 73 72 70 70 69 68 68 67 66 65 65 65 65 65 65 65 66 66 66 66 66 68 67 66 66 66 66 65 64 63
76 76 76 77 76 75 74 75 74 75 74 76 74 75 75 75 75 75 74 73 72 72 72 72 70 70 71 72 73 74 76 77 76 74 74 77 77 77 79 80 83 78 76 76 75 73 72 70 69 68 67 66 65 65 64 64 64 64 64 64 64 65 66 65 64 65 64 64 64 62 63 63 63 63
76 76 76 76 76 75 75 76 75 74 75 75 75 74 74 74 74 73 73 72 72 71 72 72 72 70 75 74 74 74 74 75 76 77 77 75 75 75 77 79 83 84 84 83 83 77 75 72 68 67 67 66 65 64 64 64 64 63 62 61 61 63 64 64 65 64 63 63 63 63 62 63 63 62
77 77 77 77 77 76 76 76 76 76 75 76 75 75 75 75 73 74 74 73 71 71 71 71 71 71 71 73 74 73 72 73 74 75 74 75 78 75 74 77 80 82 82 80 78 78 77 75 74 68 64 64 64 64 64 64 63 63 62 60 60 61 61 62 63 64 63 63 62 60 59 61 62 62
78 78 78 78 78 78 77 77 77 76 77 76 75 76 75 75 73 73 73 72 72 71 71 70 72 70 70 70 72 73 72 74 73 73 74 74 75 76 73 73 75 77 78 78 81 79 76 74 72 67 66 66 66 66 65 66 66 65 64 62 62 62 61 61 62 62 62 61 60 59 57 57 59 61
77 78 79 79 79 79 81 81 80 80 80 78 76 76 74 74 74 74 73 73 71 72 71 71 71 69 70 71 72 73 71 72 75 72 70 72 74 73 73 76 76 76 75 77 77 78 79 78 77 77 75 75 72 69 67 68 68 67 64 63 63 63 62 62 62 62 62 61 60 58 58 57 58 60
76 78 78 80 83 83 82 79 78 75 77 81 81 78 76 75 74 74 73 72 72 72 71 72 72 71 71 73 73 72 73 74 72 73 72 71 74 72 72 73 73 73 73 74 75 77 78 77 76 75 76 78 76 75 73 72 71 69 66 64 63 63 63 62 62 61 61 61 60 59 57 57 59 59
76 77 77 77 81 83 84 82 77 74 73 74 76 79 81 81 78 75 74 74 74 72 73 73 72 70 71 74 74 73 74 73 74 73 72 72 71 71 68 70 73 72 73 71 68 75 72 72 76 77 75 77 77 75 75 73 71 68 67 66 65 64 63 63 63 62 61 60 60 59 57 57 58 58
77 77 77 77 79 78 78 78 79 78 76 73 72 72 73 75 76 78 78 77 74 72 73 72 73 72 72 74 74 74 73 74 72 73 72 71 71 70 69 68 70 73 75 74 74 75 76 72 75 74 77 77 77 78 73 71 70 68 67 66 66 65 64 64 64 64 63 62 61 61 60 59 59 58
76 76 76 76 77 80 83 82 79 77 77 75 73 72 71 72 72 70 70 73 78 78 73 73 74 74 74 73 75 75 73 73 73 72 70 72 70 70 69 70 69 76 73 72 71 72 78 73 74 75 79 78 76 77 73 71 70 69 67 67 66 65 65 64 64 63 63 63 61 61 60 59 59 58
77 76 76 76 76 76 76 77 77 76 75 76 75 75 74 74 76 74 70 69 70 73 76 75 75 77 75 76 77 78 75 74 75 74 73 73 71 71 72 74 73 76 73 74 71 71 76 76 74 73 78 78 76 75 72 69 68 68 67 66 65 65 64 63 63 63 62 62 61 60 59 57 57 57
78 77 77 77 77 77 76 76 77 76 76 75 75 75 75 75 75 74 75 75 74 74 74 75 76 78 78 78 78 78 76 76 78 77 76 75 74 74 72 71 72 74 76 73 72 69 74 72 71 74 77 77 76 76 71 68 67 67 65 65 65 64 63 63 63 62 61 61 61 60 58 57 56 56
77 77 77 76 76 77 76 78 74 77 78 75 74 74 75 75 76 77 78 73 74 78 77 76 77 78 80 75 79 80 79 76 75 76 73 70 70 70 68 70 73 72 75 72 72 69 71 75 72 75 77 74 75 77 75 70 68 66 66 66 64 63 61 61 61 61 61 61 61 60 58 56 55 54
78 77 77 76 77 77 76 75 69 68 74 75 75 75 76 78 79 79 81 73 67 67 67 67 68 68 68 67 66 64 65 70 73 73 70 72 72 69 68 70 69 71 73 70 73 72 70 74 72 72 74 74 74 75 76 75 70 68 65 63 62 61 61 60 59 60 60 60 60 60 59 56 54 55
77 77 80 80 77 77 77 72 67 66 71 72 73 74 75 75 76 78 81 83 82 68 64 63 64 65 65 65 65 66 65 65 69 70 71 75 72 70 69 69 71 72 71 74 73 68 72 74 69 70 68 68 71 74 75 74 72 65 62 60 59 59 59 59 59 59 59 60 60 60 58 56 55 57
76 77 79 79 78 77 76 68 66 65 70 73 74 75 75 75 75 78 80 80 80 79 76 76 72 71 70 70 71 72 68 67 72 71 73 75 73 71 72 71 70 69 72 75 75 71 70 71 69 70 67 67 68 68 71 73 72 68 66 66 63 59 59 59 58 57 57 58 59 59 57 55 55 59
76 77 77 77 69 65 64 63 62 62 62 71 74 75 75 75 75 80 79 78 79 78 77 77 75 75 75 76 75 75 75 75 74 72 72 73 73 72 72 72 71 70 71 66 74 73 67 67 69 67 72 71 66 62 65 68 67 68 66 65 64 62 61 61 59 57 56 56 57 58 57 55 56 60
73 74 75 76 73 64 61 59 58 58 59 62 71 73 75 77 78 78 75 77 80 76 74 73 73 73 73 73 74 75 75 76 76 74 72 73 73 73 72 72 72 72 75 76 71 72 73 68 69 65 68 67 68 70 66 65 69 69 69 67 69 66 62 62 61 62 57 55 54 55 55 55 55 59
72 73 74 74 73 65 59 55 53 53 54 56 63 69 64 64 64 70 74 73 73 73 73 73 73 73 73 74 74 75 76 76 77 77 76 74 74 75 76 76 74 73 75 77 70 75 73 72 74 72 68 65 70 69 69 70 73 72 66 65 66 67 63 64 62 62 62 62 60 56 57 55 56 56
72 73 74 76 68 53 51 51 52 52 52 56 62 57 57 59 60 65 68 70 70 71 72 72 72 73 73 73 74 75 76 77 77 77 77 77 75 75 76 77 78 78 80 79 76 76 73 72 72 72 72 71 69 70 68 69 71 64 65 66 65 65 64 63 63 65 64 63 64 59 55 54 55 56
72 72 72 68 56 53 50 52 52 53 55 61 56 54 56 57 60 65 67 67 68 69 69 70 71 72 74 74 74 75 76 77 77 77 77 77 78 77 76 76 76 77 78 78 77 75 74 74 74 73 73 72 71 70 71 72 72 70 71 68 64 65 64 63 65 65 65 64 63 62 60 59 58 57
70 65 56 53 53 54 52 52 54 56 58 55 54 54 54 59 64 65 66 67 68 67 68 70 71 72 74 75 76 76 76 76 75 74 76 78 78 79 79 78 77 77 77 77 77 77 76 75 75 75 72 71 71 72 72 72 74 73 70 69 70 68 66 65 65 65 65 64 64 63 63 64 63 60
59 56 54 54 54 57 60 65 67 68 68 63 60 59 60 63 64 65 66 67 67 68 69 70 70 72 74 74 75 75 75 73 74 75 75 75 75 76 75 75 76 77 78 78 78 77 76 75 75 74 73 73 72 72 73 72 72 74 74 72 73 73 70 67 66 66 66 65 65 64 65 65 66 63
65 66 66 66 62 61 62 62 62 63 65 66 67 66 66 65 66 66 66 67 68 68 69 69 70 72 73 74 73 73 74 74 75 75 74 74 75 75 74 73 74 75 77 78 78 77 77 76 76 75 73 73 73 73 73 73 72 73 74 72 70 70 68 65 67 67 66 67 67 66 65 64 65 68
61 64 65 64 67 69 69 69 70 69 69 69 68 68 68 69 69 70 70 70 69 70 71 72 72 72 72 72 73 74 73 74 74 74 73 73 74 74 73 72 72 73 74 75 75 75 78 77 76 76 75 75 73 74 74 72 72 73 73 73 72 73 75 72 69 67 67 66 64 65 66 65 65 65
59 62 65 67 68 69 69 69 70 70 69 70 70 70 70 70 70 69 68 68 68 69 69 69 70 71 72 72 73 72 72 72 73 73 72 73 72 73 72 71 72 72 72 73 75 74 73 75 76 76 76 76 76 75 73 71 73 73 72 73 72 73 74 74 73 72 67 64 65 66 66 66 66 67
56 62 64 65 66 67 68 68 68 69 69 69 70 70 68 69 70 70 69 69 70 70 69 70 70 70 70 71 72 72 71 72 73 72 69 72 72 71 71 71 72 73 72 72 73 74 73 72 72 73 74 74 76 75 75 73 72 73 73 73 73 73 75 75 73 73 69 68 68 66 66 67 68 68
62 63 63 64 65 66 67 67 68 69 69 70 70 71 71 72 71 70 70 71 70 69 70 70 70 70 70 70 71 71 71 71 72 72 70 70 71 71 71 71 72 72 72 72 72 73 72 71 70 70 69 70 70 73 75 75 73 73 73 74 74 73 74 75 74 72 72 70 69 69 70 70 71 70
62 63 63 63 64 65 65 66 68 69 70 71 71 72 71 72 72 72 71 70 70 70 70 71 70 71 70 70 70 70 70 69 70 71 71 70 70 70 71 71 71 72 72 72 72 73 72 72 70 69 69 69 68 69 72 72 74 75 72 73 75 74 75 75 74 74 72 71 70 69 69 70 73 74
59 60 61 61 62 62 61 62 63 64 65 65 66 68 69 70 71 72 72 71 71 70 71 71 72 71 71 70 70 69 69 69 70 70 70 72 71 71 71 71 71 71 71 72 73 73 72 71 70 70 69 69 68 67 71 72 67 69 77 74 74 75 75 74 73 71 72 72 72 70 70 71 72 75
56 57 58 59 59 59 60 60 61 61 62 63 64 64 64 64 65 66 69 70 70 71 70 70 70 70 71 71 70 71 71 70 70 70 71 71 71 71 71 71 72 72 72 73 73 72 72 72 71 71 70 69 68 69 69 75 76 71 65 73 74 75 74 73 72 72 73 72 71 73 72 71 72 75
55 56 56 56 56 56 56 57 58 58 59 61 61 61 61 61 62 63 64 65 66 67 68 70 70 70 71 71 70 70 69 69 69 69 70 71 71 71 71 71 71 72 72 72 73 72 72 71 72 72 70 69 69 70 72 72 72 77 68 60 72 75 74 73 73 74 73 72 72 72 73 74 73 68
54 55 55 55 54 54 54 55 55 56 56 58 58 59 59 59 59 60 61 62 62 64 65 67 68 68 70 70 70 70 70 69 69 70 70 71 71 70 71 71 71 71 71 71 71 71 71 71 71 71 71 71 73 74 73 72 73 75 75 68 58 66 74 74 73 74 73 74 73 71 71 71 70 72
53 52 52 53 54 54 54 54 54 55 55 56 56 57 57 57 57 58 59 59 61 62 63 64 66 67 68 69 70 69 69 69 69 70 70 69 68 68 68 66 69 69 69 69 70 70 71 73 74 68 73 74 73 73 70 69 69 73 74 75 61 58 62 66 74 74 73 74 72 71 71 71 72 71
52 51 51 51 51 53 53 53 53 53 54 54 55 55 55 56 56 57 57 59 59 60 60 61 63 63 63 65 66 66 67 68 68 69 69 69 69 68 67 67 68 69 68 68 69 71 73 73 73 72 71 71 69 68 67 67 69 71 73 75 74 62 59 59 60 64 74 74 72 70 70 71 71 69
52 51 49 51 51 52 53 53 53 53 53 53 53 54 54 54 54 55 55 56 56 57 58 58 59 59 60 62 63 63 63 63 65 65 66 67 68 68 69 69 69 69 69 70 71 72 72 72 70 70 69 69 69 69 67 69 70 70 71 72 73 72 70 63 60 59 60 61 63 69 75 74 69 67
49 49 49 50 51 51 52 52 52 52 53 53 53 53 53 53 53 54 54 54 54 54 55 55 56 57 57 58 58 59 59 60 60 60 61 62 62 64 65 67 68 68 69 69 69 70 71 71 70 70 69 68 69 68 67 68 68 69 69 70 71 71 71 72 71 64 62 61 60 58 59 62 65 68
49 48 48 50 51 52 52 52 52 52 52 52 52 52 52 53 52 53 53 53 53 53 53 54 54 55 54 55 54 54 55 56 57 58 59 60 61 63 64 65 65 66 68 69 69 69 70 70 70 70 69 69 70 69 69 68 68 69 69 70 70 71 72 70 69 69 70 70 66 61 60 60 61 61
MSLP
1022.53 1022.57 1022.61 1022.69 1022.65 1022.49 1022.29 1022.21 1022.17 1022.17 1022.17 1022.21 1022.29 1022.37 1022.85 1023.29 1024.25 1024.77 1024.65 1023.97 1023.65 1022.53 1022.01 1022.37 1021.37 1020.65 1020.57 1020.53 1020.29 1020.29 1020.21 1020.01 1019.97 1019.97 1019.89 1019.89 1019.81 1019.61 1019.53 1019.45 1019.37 1019.33 1019.21 1019.13 1019.05 1019.01 1018.97 1018.89 1018.81 1018.77 1018.77 1018.85 1018.89 1018.89 1018.85 1018.85 1018.85 1018.85 1018.81 1018.77 1018.69 1018.69 1018.73 1018.77 1018.81 1018.81 1018.81 1018.81 1018.81 1018.77 1018.69 1018.61 1018.49 1018.33
1022.45 1022.49 1022.49 1022.45 1022.53 1022.25 1022.29 1022.25 1022.05 1022.01 1022.05 1022.13 1022.17 1022.21 1022.33 1022.45 1023.41 1023.97 1024.65 1024.37 1023.45 1023.01 1022.05 1021.89 1021.89 1020.89 1020.69 1020.45 1020.33 1020.21 1020.17 1019.93 1019.89 1019.85 1019.81 1019.77 1019.69 1019.57 1019.53 1019.41 1019.33 1019.21 1019.13 1019.05 1018.93 1018.89 1018.81 1018.73 1018.65 1018.57 1018.57 1018.61 1018.69 1018.69 1018.65 1018.61 1018.61 1018.61 1018.57 1018.53 1018.49 1018.45 1018.49 1018.57 1018.65 1018.69 1018.69 1018.69 1018.69 1018.65 1018.61 1018.53 1018.49 1018.37
1022.33 1022.49 1022.57 1022.41 1022.41 1022.17 1022.25 1022.13 1022.01 1021.89 1021.93 1022.05 1022.09 1022.17 1022.17 1022.29 1022.57 1023.21 1023.73 1024.53 1023.21 1022.73 1022.73 1021.93 1021.25 1021.29 1020.85 1020.53 1020.49 1020.29 1020.09 1019.93 1019.81 1019.81 1019.81 1019.69 1019.53 1019.49 1019.33 1019.21 1019.13 1019.05 1018.97 1018.93 1018.81 1018.73 1018.65 1018.57 1018.49 1018.41 1018.41 1018.41 1018.45 1018.45 1018.41 1018.37 1018.37 1018.37 1018.33 1018.29 1018.25 1018.21 1018.29 1018.37 1018.45 1018.49 1018.53 1018.57 1018.57 1018.57 1018.49 1018.45 1018.45 1018.33
1022.25 1022.41 1022.53 1022.45 1022.41 1022.21 1022.21 1022.17 1022.01 1021.89 1021.89 1021.89 1022.05 1022.13 1022.25 1022.29 1022.41 1022.65 1023.25 1023.97 1023.89 1022.53 1022.37 1021.89 1021.45 1021.09 1021.09 1020.61 1020.69 1020.49 1020.25 1019.89 1019.85 1019.81 1019.73 1019.57 1019.49 1019.41 1019.29 1019.09 1018.97 1018.89 1018.81 1018.73 1018.65 1018.57 1018.49 1018.41 1018.33 1018.25 1018.21 1018.21 1018.25 1018.25 1018.21 1018.17 1018.17 1018.13 1018.09 1018.05 1018.01 1017.97 1018.05 1018.13 1018.21 1018.29 1018.33 1018.41 1018.45 1018.45 1018.37 1018.37 1018.37 1018.29
1022.25 1022.33 1022.41 1022.33 1022.21 1022.09 1022.25 1022.17 1022.09 1021.97 1021.93 1021.93 1021.97 1022.01 1022.17 1022.37 1022.41 1022.57 1023.05 1023.69 1023.65 1022.65 1022.01 1022.09 1021.65 1021.09 1021.01 1021.05 1020.61 1020.73 1020.57 1020.29 1019.97 1019.77 1019.69 1019.61 1019.57 1019.45 1019.33 1019.13 1018.97 1018.85 1018.69 1018.61 1018.53 1018.45 1018.33 1018.25 1018.17 1018.09 1018.01 1018.01 1018.05 1018.05 1018.01 1017.97 1017.93 1017.89 1017.85 1017.81 1017.77 1017.77 1017.81 1017.89 1018.01 1018.05 1018.13 1018.21 1018.25 1018.29 1018.29 1018.25 1018.25 1018.21
1022.17 1022.21 1022.37 1022.29 1022.17 1021.97 1022.13 1022.05 1022.05 1021.97 1021.89 1021.85 1021.97 1022.09 1022.17 1022.25 1022.33 1022.41 1022.93 1023.25 1023.41 1023.41 1022.29 1022.01 1021.45 1021.37 1020.97 1021.45 1020.57 1020.81 1020.77 1020.53 1020.17 1020.09 1019.85 1019.53 1019.45 1019.45 1019.29 1019.21 1018.97 1018.73 1018.61 1018.49 1018.37 1018.29 1018.17 1018.05 1017.97 1017.89 1017.85 1017.85 1017.89 1017.89 1017.85 1017.85 1017.81 1017.77 1017.69 1017.61 1017.61 1017.57 1017.57 1017.69 1017.77 1017.85 1017.89 1017.97 1018.05 1018.09 1018.13 1018.13 1018.13 1018.09
1022.05 1022.21 1022.29 1022.21 1022.05 1021.97 1022.13 1022.01 1021.93 1021.81 1021.85 1021.81 1021.93 1021.97 1021.97 1022.13 1022.05 1022.13 1022.29 1022.85 1023.37 1023.25 1022.73 1021.97 1022.01 1021.57 1021.21 1021.29 1020.93 1020.53 1020.45 1020.33 1020.21 1020.29 1019.97 1019.73 1019.41 1019.25 1019.21 1019.17 1018.89 1018.57 1018.45 1018.33 1018.21 1018.09 1017.97 1017.85 1017.77 1017.69 1017.69 1017.69 1017.73 1017.77 1017.77 1017.77 1017.73 1017.69 1017.61 1017.49 1017.37 1017.33 1017.33 1017.41 1017.53 1017.57 1017.65 1017.73 1017.81 1017.89 1017.93 1017.97 1018.01 1017.97
1022.09 1022.13 1022.21 1022.09 1021.97 1021.93 1022.17 1022.01 1021.89 1021.73 1021.73 1021.77 1021.81 1021.89 1021.85 1021.97 1021.97 1021.85 1022.09 1022.21 1022.61 1022.69 1022.97 1022.09 1021.89 1021.37 1021.45 1021.01 1020.61 1020.45 1020.29 1020.33 1020.21 1020.09 1019.81 1019.49 1019.45 1019.25 1019.05 1018.97 1018.81 1018.41 1018.25 1018.13 1018.05 1017.93 1017.81 1017.69 1017.61 1017.53 1017.49 1017.49 1017.57 1017.65 1017.69 1017.65 1017.61 1017.53 1017.45 1017.33 1017.21 1017.13 1017.09 1017.17 1017.25 1017.29 1017.37 1017.49 1017.61 1017.69 1017.77 1017.81 1017.85 1017.89
1021.81 1021.89 1021.97 1021.81 1021.77 1021.85 1022.13 1022.01 1021.97 1021.73 1021.73 1021.61 1021.73 1021.85 1021.73 1021.81 1021.69 1021.73 1021.81 1021.97 1022.13 1022.49 1022.73 1022.37 1021.53 1021.29 1021.21 1020.81 1020.57 1020.33 1020.61 1020.29 1020.05 1019.85 1019.89 1019.69 1019.53 1019.29 1018.97 1018.77 1018.45 1018.29 1018.05 1017.93 1017.81 1017.69 1017.57 1017.49 1017.41 1017.33 1017.29 1017.29 1017.33 1017.45 1017.45 1017.45 1017.41 1017.33 1017.25 1017.17 1017.05 1016.97 1016.89 1016.89 1016.93 1017.01 1017.09 1017.25 1017.37 1017.49 1017.61 1017.65 1017.73 1017.77
1021.45 1021.61 1021.65 1021.57 1021.57 1021.73 1021.93 1021.89 1021.73 1021.69 1021.65 1021.57 1021.69 1021.77 1021.69 1021.61 1021.61 1021.73 1021.73 1021.77 1021.97 1022.21 1022.25 1022.25 1022.05 1021.41 1021.37 1021.09 1020.69 1020.29 1020.29 1020.61 1020.57 1020.17 1019.73 1019.49 1019.37 1019.45 1019.29 1018.85 1018.49 1018.17 1018.05 1017.97 1017.65 1017.45 1017.29 1017.21 1017.17 1017.17 1017.09 1017.09 1017.13 1017.17 1017.17 1017.21 1017.17 1017.09 1017.01 1016.97 1016.89 1016.77 1016.69 1016.65 1016.69 1016.73 1016.85 1016.97 1017.13 1017.25 1017.41 1017.45 1017.53 1017.61
1021.09 1021.17 1021.25 1021.29 1021.33 1021.45 1021.49 1021.57 1021.57 1021.49 1021.49 1021.53 1021.57 1021.49 1021.49 1021.41 1021.61 1021.69 1021.65 1021.65 1021.85 1022.01 1022.09 1021.97 1021.81 1021.73 1021.21 1021.21 1021.17 1020.33 1020.17 1020.33 1020.49 1020.81 1020.69 1020.33 1019.33 1019.33 1019.49 1019.37 1018.53 1018.17 1018.05 1017.61 1017.45 1017.37 1017.17 1017.01 1016.97 1016.93 1016.93 1016.89 1016.89 1016.89 1016.93 1016.93 1016.89 1016.81 1016.73 1016.73 1016.69 1016.61 1016.53 1016.45 1016.45 1016.49 1016.53 1016.69 1016.85 1017.01 1017.13 1017.25 1017.33 1017.41
1020.85 1020.81 1020.85 1020.85 1020.85 1020.93 1020.97 1021.05 1021.09 1021.13 1021.29 1021.25 1021.41 1021.13 1021.21 1021.33 1021.57 1021.65 1021.57 1021.69 1021.77 1021.89 1021.97 1021.97 1021.77 1021.57 1021.45 1021.09 1020.73 1020.41 1020.45 1020.61 1020.45 1020.37 1020.65 1020.97 1020.33 1019.77 1019.37 1019.21 1019.29 1018.49 1018.25 1018.13 1017.61 1017.09 1016.93 1016.81 1016.73 1016.69 1016.69 1016.61 1016.57 1016.57 1016.61 1016.57 1016.53 1016.45 1016.41 1016.41 1016.41 1016.37 1016.29 1016.25 1016.21 1016.25 1016.29 1016.41 1016.57 1016.77 1016.93 1017.05 1017.13 1017.21
1020.65 1020.57 1020.49 1020.45 1020.41 1020.37 1020.37 1020.37 1020.45 1020.49 1020.57 1020.89 1021.21 1020.93 1020.97 1021.21 1021.37 1021.49 1021.53 1021.65 1021.77 1021.85 1021.97 1021.97 1021.69 1021.77 1021.65 1021.33 1021.17 1021.01 1020.97 1021.05 1020.89 1020.33 1020.37 1020.57 1020.05 1019.93 1019.89 1019.09 1018.53 1018.45 1018.45 1018.05 1017.85 1017.53 1017.05 1017.01 1016.77 1016.57 1016.53 1016.25 1016.17 1016.17 1016.21 1016.21 1016.13 1016.05 1016.05 1016.01 1016.05 1016.01 1015.97 1015.97 1015.97 1015.97 1016.05 1016.17 1016.33 1016.49 1016.69 1016.81 1016.89 1016.93
1020.49 1020.33 1020.25 1020.05 1019.93 1019.93 1019.93 1020.01 1020.05 1020.13 1020.17 1020.17 1020.29 1020.41 1020.57 1020.85 1021.09 1021.25 1021.37 1021.49 1021.53 1021.69 1021.89 1021.81 1021.69 1021.85 1021.69 1021.25 1020.97 1021.05 1020.53 1020.13 1020.17 1020.37 1020.41 1020.81 1020.09 1020.01 1020.01 1019.53 1018.69 1018.01 1018.21 1018.29 1018.17 1017.45 1016.77 1016.93 1016.77 1016.53 1016.53 1015.93 1015.85 1015.85 1015.85 1015.81 1015.65 1015.61 1015.57 1015.61 1015.61 1015.61 1015.65 1015.65 1015.69 1015.73 1015.81 1015.93 1016.09 1016.25 1016.41 1016.53 1016.61 1016.69
1020.33 1020.13 1019.97 1019.89 1019.73 1019.65 1019.65 1019.61 1019.65 1019.77 1019.85 1019.93 1019.93 1019.89 1019.85 1019.97 1020.37 1020.89 1021.17 1021.17 1021.05 1021.37 1021.45 1021.25 1021.41 1021.53 1021.45 1020.89 1020.49 1020.57 1020.25 1020.09 1020.17 1020.21 1020.17 1020.33 1020.37 1020.57 1020.77 1020.77 1018.97 1017.77 1017.97 1018.25 1018.25 1017.61 1016.69 1016.77 1017.01 1016.49 1016.29 1015.93 1015.69 1015.57 1015.53 1015.29 1015.29 1015.29 1015.21 1015.21 1015.21 1015.25 1015.25 1015.29 1015.37 1015.41 1015.53 1015.73 1015.85 1015.97 1016.09 1016.21 1016.29 1016.41
1020.05 1020.01 1019.93 1019.77 1019.65 1019.61 1019.53 1019.49 1019.53 1019.53 1019.53 1019.57 1019.61 1019.69 1019.73 1019.77 1019.73 1019.77 1020.17 1020.61 1020.93 1021.01 1021.17 1021.21 1021.05 1021.05 1021.01 1020.53 1020.25 1020.17 1020.13 1019.97 1019.89 1019.81 1019.93 1020.09 1020.21 1020.33 1020.53 1020.29 1020.21 1018.29 1017.73 1018.29 1018.45 1017.89 1016.49 1016.53 1016.77 1016.69 1016.01 1015.61 1015.45 1015.21 1015.05 1014.97 1014.93 1014.93 1014.89 1014.85 1014.85 1014.89 1014.89 1014.93 1014.97 1015.05 1015.21 1015.41 1015.57 1015.65 1015.77 1015.89 1015.97 1016.09
1019.73 1019.77 1019.85 1019.77 1019.57 1019.33 1019.21 1019.25 1019.29 1019.37 1019.37 1019.25 1019.25 1019.33 1019.45 1019.57 1019.61 1019.65 1019.61 1019.57 1019.77 1019.89 1020.53 1020.77 1020.65 1020.49 1020.29 1020.41 1019.97 1019.53 1019.45 1019.17 1019.73 1019.53 1019.77 1019.69 1019.69 1019.77 1019.93 1019.69 1019.25 1018.13 1017.57 1018.21 1018.57 1018.41 1016.77 1016.53 1016.77 1016.81 1015.61 1015.25 1015.17 1014.97 1014.77 1014.69 1014.65 1014.61 1014.57 1014.53 1014.53 1014.53 1014.53 1014.53 1014.61 1014.69 1014.85 1015.05 1015.17 1015.33 1015.41 1015.57 1015.69 1015.77
1019.33 1019.33 1019.45 1019.57 1019.49 1019.21 1019.13 1019.09 1019.13 1019.13 1019.17 1019.17 1019.17 1019.21 1019.25 1019.25 1019.13 1019.17 1019.25 1019.33 1019.41 1019.53 1019.77 1019.97 1020.25 1019.41 1019.37 1019.61 1019.05 1018.61 1018.65 1019.25 1019.49 1019.49 1019.57 1019.25 1019.41 1019.41 1019.25 1018.57 1018.37 1017.53 1017.29 1018.21 1018.41 1018.57 1017.13 1016.29 1016.73 1016.73 1015.57 1014.89 1014.97 1014.73 1014.49 1014.45 1014.37 1014.33 1014.29 1014.25 1014.21 1014.17 1014.17 1014.17 1014.21 1014.33 1014.49 1014.65 1014.77 1014.93 1015.09 1015.25 1015.37 1015.41
1018.81 1018.77 1018.85 1018.97 1019.01 1018.85 1018.89 1018.81 1018.81 1018.97 1018.97 1019.01 1019.09 1019.13 1019.09 1018.93 1018.85 1018.81 1018.89 1018.93 1018.97 1019.13 1019.21 1019.25 1019.05 1018.73 1018.49 1018.53 1018.33 1018.17 1018.21 1018.45 1018.41 1018.45 1018.65 1018.69 1018.69 1018.53 1018.25 1018.29 1017.93 1017.61 1016.97 1017.53 1018.17 1018.81 1016.93 1016.21 1016.73 1016.33 1015.49 1015.01 1014.89 1014.41 1014.21 1014.13 1014.09 1014.01 1013.97 1013.93 1013.89 1013.85 1013.85 1013.85 1013.85 1013.93 1014.09 1014.21 1014.33 1014.49 1014.69 1014.85 1015.01 1015.09
1018.29 1018.33 1018.45 1018.61 1018.65 1018.53 1018.49 1018.29 1018.29 1018.41 1018.53 1018.89 1019.09 1019.17 1018.93 1018.77 1018.57 1018.45 1018.01 1017.89 1017.93 1018.01 1018.09 1018.17 1018.17 1017.97 1017.77 1017.65 1017.69 1017.65 1017.77 1017.93 1017.97 1018.05 1018.17 1018.29 1018.53 1018.85 1019.13 1019.17 1018.25 1018.17 1016.77 1016.97 1017.69 1018.01 1017.21 1016.01 1016.69 1016.09 1015.09 1015.01 1015.09 1014.25 1014.05 1013.73 1013.73 1013.69 1013.61 1013.57 1013.53 1013.53 1013.53 1013.53 1013.53 1013.61 1013.73 1013.85 1013.97 1014.09 1014.29 1014.49 1014.65 1014.77
1017.97 1018.01 1018.09 1018.25 1018.33 1018.29 1018.25 1017.89 1017.93 1018.05 1018.33 1018.77 1018.93 1018.97 1018.89 1018.61 1018.49 1018.25 1017.65 1017.41 1017.41 1017.45 1017.41 1017.37 1017.33 1017.33 1017.37 1017.41 1017.45 1017.53 1017.57 1017.73 1017.73 1018.21 1018.77 1018.85 1018.53 1019.13 1019.41 1018.85 1018.65 1018.09 1017.09 1016.73 1016.85 1017.33 1017.29 1016.05 1016.25 1016.17 1015.41 1015.17 1015.01 1014.49 1013.93 1013.49 1013.37 1013.37 1013.29 1013.29 1013.29 1013.29 1013.29 1013.29 1013.33 1013.37 1013.49 1013.57 1013.65 1013.77 1013.97 1014.13 1014.29 1014.45
1017.77 1017.73 1017.69 1017.77 1017.97 1018.05 1017.89 1017.61 1017.69 1017.81 1018.25 1018.69 1018.65 1018.73 1018.77 1018.73 1018.57 1018.17 1017.57 1017.29 1016.97 1016.85 1016.97 1017.09 1017.13 1017.17 1017.21 1017.25 1017.29 1017.33 1017.29 1017.21 1017.57 1018.29 1018.89 1017.93 1018.13 1018.73 1018.81 1018.89 1018.21 1017.53 1017.13 1016.49 1016.25 1017.25 1016.61 1015.85 1015.85 1016.17 1015.57 1015.25 1014.69 1014.17 1013.69 1013.37 1013.21 1013.13 1013.09 1013.05 1013.09 1013.09 1013.13 1013.17 1013.17 1013.25 1013.33 1013.37 1013.41 1013.53 1013.65 1013.85 1014.09 1014.33
1017.65 1017.53 1017.37 1017.37 1017.41 1017.49 1017.41 1017.45 1017.49 1017.57 1017.97 1018.33 1018.33 1018.37 1018.53 1018.57 1018.41 1017.81 1017.41 1017.41 1017.25 1017.05 1017.09 1016.97 1016.97 1017.05 1016.89 1016.93 1016.97 1016.81 1016.69 1016.73 1017.01 1017.33 1017.37 1017.33 1018.05 1018.37 1018.13 1018.09 1017.97 1018.13 1016.97 1015.65 1015.45 1016.97 1016.13 1016.05 1015.57 1015.93 1016.25 1016.13 1014.65 1013.89 1013.49 1013.33 1013.13 1013.05 1013.01 1012.93 1012.89 1012.85 1012.93 1012.97 1013.09 1013.17 1013.21 1013.21 1013.29 1013.37 1013.53 1013.73 1013.97 1014.09
1017.53 1017.33 1017.21 1017.01 1017.05 1017.13 1017.17 1017.21 1017.25 1017.33 1017.53 1017.89 1017.81 1017.93 1018.21 1018.21 1017.93 1016.97 1017.13 1017.05 1017.05 1017.05 1017.05 1016.93 1016.81 1016.81 1016.57 1016.49 1016.45 1016.45 1016.37 1016.33 1016.41 1016.57 1016.73 1016.89 1017.21 1017.53 1017.49 1017.45 1017.61 1017.81 1016.65 1015.37 1015.09 1016.05 1015.73 1015.61 1015.69 1015.37 1015.65 1016.29 1016.05 1014.13 1013.53 1013.33 1012.93 1012.81 1012.85 1012.89 1012.85 1012.53 1012.65 1012.77 1012.81 1012.93 1013.05 1013.13 1013.25 1013.33 1013.45 1013.61 1013.73 1013.89
1017.73 1017.53 1017.29 1017.01 1016.85 1016.93 1016.97 1017.01 1017.09 1017.17 1017.21 1017.45 1017.57 1017.53 1017.53 1017.17 1016.61 1016.57 1017.05 1016.89 1016.77 1016.89 1016.81 1016.85 1016.77 1016.73 1016.61 1016.53 1016.37 1016.29 1016.17 1016.01 1015.93 1016.01 1016.09 1016.17 1016.25 1016.57 1016.81 1016.93 1016.97 1016.69 1015.61 1014.73 1014.85 1015.45 1015.89 1015.41 1015.69 1015.53 1015.69 1015.73 1015.13 1014.81 1013.85 1013.53 1012.81 1012.61 1012.45 1012.53 1012.53 1012.33 1012.53 1012.53 1012.61 1012.65 1012.77 1012.97 1013.05 1013.17 1013.33 1013.37 1013.45 1013.45
1017.73 1017.61 1017.41 1017.25 1016.97 1016.97 1017.13 1017.25 1017.29 1017.29 1017.33 1017.45 1017.65 1017.17 1016.77 1016.57 1016.69 1016.85 1016.81 1016.85 1016.85 1016.89 1016.85 1016.81 1016.77 1016.65 1016.61 1016.53 1016.33 1016.09 1015.89 1015.65 1015.49 1015.45 1015.41 1015.41 1015.45 1015.37 1015.37 1015.61 1016.01 1016.13 1015.21 1014.01 1014.29 1014.77 1015.33 1015.53 1015.25 1015.61 1015.53 1015.73 1015.17 1014.93 1014.81 1013.97 1012.97 1012.41 1012.25 1012.29 1012.25 1012.13 1012.29 1012.29 1012.45 1012.45 1012.45 1012.53 1012.69 1012.77 1012.77 1012.97 1013.13 1013.17
1017.77 1017.45 1017.37 1017.13 1017.21 1017.37 1017.41 1017.37 1017.25 1017.13 1017.05 1017.09 1016.97 1016.77 1016.77 1016.73 1016.61 1016.77 1016.85 1016.81 1016.89 1016.89 1016.77 1016.77 1016.73 1016.45 1016.33 1016.29 1016.01 1015.73 1015.53 1015.21 1015.01 1014.93 1014.77 1014.65 1014.69 1014.73 1014.57 1014.41 1014.33 1014.29 1013.57 1013.53 1013.69 1014.01 1014.53 1014.73 1014.29 1014.97 1015.21 1015.05 1015.41 1014.81 1014.77 1014.65 1013.49 1012.65 1012.61 1012.37 1012.33 1012.17 1012.21 1012.33 1012.29 1012.05 1012.01 1012.13 1012.17 1012.33 1012.77 1012.97 1013.05 1013.05
1017.81 1017.65 1017.49 1017.45 1017.45 1017.37 1017.25 1017.09 1017.05 1016.93 1016.89 1016.77 1016.49 1016.49 1016.45 1016.45 1016.57 1016.73 1016.61 1016.61 1016.57 1016.61 1016.69 1016.69 1016.49 1016.21 1015.81 1015.69 1015.53 1015.21 1014.85 1014.65 1014.49 1014.41 1014.29 1014.25 1014.09 1014.09 1013.93 1013.73 1013.61 1013.33 1013.25 1013.33 1013.45 1013.61 1013.85 1014.17 1014.09 1014.01 1014.25 1014.65 1015.01 1015.09 1014.65 1013.33 1013.17 1012.93 1012.89 1012.21 1012.25 1012.13 1012.13 1012.13 1012.01 1011.85 1011.77 1011.81 1011.97 1012.09 1012.37 1012.49 1012.49 1012.81
1017.69 1017.61 1017.53 1017.49 1017.37 1017.25 1017.13 1016.97 1016.81 1016.65 1016.49 1016.33 1016.21 1016.13 1016.13 1016.29 1016.37 1016.29 1016.29 1016.25 1016.33 1016.53 1016.41 1016.17 1015.89 1015.65 1015.25 1014.93 1014.57 1014.25 1014.21 1014.05 1014.01 1014.09 1013.89 1013.65 1013.49 1013.29 1013.21 1013.05 1012.89 1012.77 1012.81 1012.81 1012.97 1013.13 1013.41 1013.69 1013.77 1013.65 1013.93 1013.97 1014.33 1013.89 1013.89 1013.45 1012.97 1012.61 1012.45 1012.61 1012.41 1011.73 1011.65 1011.65 1011.69 1011.65 1011.53 1011.61 1011.65 1011.77 1011.69 1011.49 1011.73 1012.01
1017.85 1017.69 1017.49 1017.29 1017.13 1016.97 1016.77 1016.65 1016.57 1016.41 1016.17 1016.01 1015.93 1015.85 1015.81 1015.97 1016.01 1015.97 1015.97 1015.97 1016.09 1016.05 1015.81 1015.73 1015.57 1015.09 1014.65 1014.45 1014.09 1013.93 1013.89 1014.13 1014.05 1013.85 1013.85 1013.73 1013.57 1013.41 1013.49 1013.45 1012.89 1012.37 1012.25 1012.25 1012.37 1012.53 1012.73 1012.93 1013.09 1013.29 1013.49 1013.41 1013.45 1013.49 1013.01 1013.13 1012.81 1012.01 1011.93 1012.25 1011.85 1011.29 1010.85 1010.97 1011.05 1011.01 1011.13 1011.17 1011.13 1011.13 1010.89 1010.93 1010.97 1011.33
1017.77 1017.49 1017.29 1017.09 1016.85 1016.65 1016.41 1016.33 1016.21 1016.09 1015.89 1015.81 1015.65 1015.53 1015.49 1015.57 1015.61 1015.65 1015.69 1015.65 1015.65 1015.49 1015.37 1015.17 1014.93 1014.61 1014.25 1013.97 1014.05 1014.01 1013.93 1013.89 1013.45 1013.33 1013.57 1013.65 1013.41 1013.29 1013.33 1013.53 1013.05 1012.45 1012.09 1011.89 1011.77 1011.85 1012.05 1012.17 1012.25 1012.49 1013.09 1012.77 1012.57 1012.49 1012.21 1012.41 1012.45 1011.81 1011.37 1011.41 1011.69 1012.29 1010.41 1010.37 1010.33 1010.45 1010.45 1010.49 1010.49 1010.49 1010.53 1010.65 1010.69 1010.61
1017.97 1017.57 1017.17 1016.85 1016.57 1016.33 1016.21 1016.01 1015.85 1015.69 1015.57 1015.49 1015.41 1015.29 1015.21 1015.13 1015.05 1015.01 1014.97 1015.05 1015.13 1015.01 1014.77 1014.57 1014.33 1014.21 1014.09 1014.21 1013.93 1013.73 1013.69 1013.53 1013.21 1013.05 1013.33 1013.37 1013.17 1013.01 1013.21 1013.57 1013.13 1012.53 1012.17 1011.85 1011.69 1011.41 1011.37 1011.45 1011.61 1011.65 1011.81 1011.97 1012.25 1011.69 1011.61 1011.73 1011.65 1011.25 1011.09 1010.85 1010.97 1010.49 1010.01 1010.13 1010.13 1010.09 1010.05 1010.25 1010.53 1010.33 1009.97 1010.01 1010.09 1010.01
1017.89 1017.53 1017.21 1016.93 1016.65 1016.49 1016.37 1016.17 1015.93 1015.69 1015.49 1015.29 1015.09 1014.97 1014.85 1014.77 1014.69 1014.73 1014.81 1014.97 1014.85 1014.65 1014.69 1014.65 1014.49 1014.33 1014.09 1013.89 1013.61 1013.57 1013.53 1013.29 1013.05 1012.81 1013.05 1012.85 1013.01 1012.81 1013.01 1013.33 1012.93 1012.73 1012.57 1012.05 1011.69 1011.49 1011.33 1011.17 1010.97 1011.01 1011.05 1010.97 1010.93 1011.01 1011.41 1011.65 1010.81 1010.69 1010.93 1010.53 1010.61 1010.25 1009.65 1009.53 1009.69 1009.65 1009.89 1010.41 1010.29 1010.01 1009.89 1009.49 1009.17 1008.97
1018.13 1017.65 1017.45 1017.21 1017.05 1016.81 1016.53 1016.33 1016.05 1015.77 1015.53 1015.37 1015.13 1014.81 1014.61 1014.49 1014.45 1014.37 1014.37 1014.33 1014.29 1014.17 1014.21 1014.13 1014.21 1014.09 1013.93 1013.77 1013.49 1013.41 1013.33 1013.01 1012.81 1012.61 1012.77 1012.73 1012.57 1012.89 1012.89 1012.97 1012.57 1012.09 1012.17 1011.93 1011.53 1011.33 1011.21 1011.09 1010.97 1010.81 1010.61 1010.45 1010.09 1010.13 1010.37 1010.85 1010.49 1010.37 1010.33 1010.09 1009.93 1009.69 1008.93 1009.05 1009.01 1009.01 1009.33 1009.37 1009.49 1009.85 1009.61 1009.21 1008.73 1008.45
1018.09 1017.93 1017.73 1017.45 1017.13 1016.93 1016.65 1016.41 1016.13 1015.77 1015.53 1015.29 1015.05 1014.77 1014.45 1014.21 1014.13 1014.05 1014.01 1013.89 1013.77 1013.77 1013.77 1013.77 1013.73 1013.65 1013.65 1013.53 1013.29 1013.25 1012.97 1012.85 1012.61 1012.45 1012.37 1012.37 1012.41 1012.49 1012.41 1012.45 1012.13 1011.89 1011.85 1011.77 1011.41 1011.05 1011.09 1011.05 1011.09 1011.25 1011.05 1010.89 1010.69 1009.53 1008.93 1009.33 1010.17 1009.89 1009.81 1009.45 1009.17 1009.25 1008.89 1008.61 1008.69 1008.73 1008.81 1008.93 1009.17 1009.49 1009.05 1008.69 1008.25 1007.77
1018.25 1018.13 1018.01 1017.81 1017.53 1017.21 1017.01 1016.69 1016.25 1015.89 1015.57 1015.17 1014.89 1014.61 1014.41 1014.21 1013.93 1013.85 1013.77 1013.45 1013.41 1013.41 1013.41 1013.41 1013.29 1013.25 1013.21 1013.09 1012.93 1012.81 1012.65 1012.57 1012.49 1012.33 1012.29 1012.25 1012.25 1012.13 1011.97 1011.89 1011.69 1011.45 1011.37 1011.37 1011.13 1010.77 1010.85 1010.89 1011.01 1011.41 1011.61 1011.29 1011.29 1010.77 1009.05 1008.01 1008.37 1008.89 1009.49 1009.13 1008.53 1008.61 1008.25 1008.09 1008.09 1008.17 1008.41 1008.69 1008.81 1009.13 1009.25 1008.53 1007.77 1007.13
1018.73 1018.53 1018.45 1018.25 1018.01 1017.85 1017.73 1017.45 1017.17 1016.81 1016.41 1016.05 1015.69 1015.21 1014.85 1014.45 1014.01 1013.69 1013.33 1013.09 1013.13 1013.09 1013.05 1012.97 1012.85 1012.73 1012.69 1012.61 1012.53 1012.41 1012.33 1012.33 1012.33 1012.05 1012.01 1011.81 1011.77 1011.69 1011.73 1011.49 1011.29 1011.05 1011.01 1010.69 1010.53 1010.45 1010.53 1010.73 1010.65 1011.01 1011.33 1011.41 1011.37 1011.13 1009.29 1008.17 1007.93 1007.37 1007.93 1008.45 1008.09 1007.77 1007.85 1007.77 1007.93 1008.09 1007.89 1008.01 1008.17 1008.37 1008.29 1008.01 1007.49 1006.61
1019.13 1018.97 1018.85 1018.69 1018.53 1018.33 1018.13 1017.85 1017.53 1017.17 1016.81 1016.45 1016.13 1015.85 1015.61 1015.33 1014.97 1014.53 1013.97 1013.61 1013.29 1013.01 1012.81 1012.73 1012.53 1012.41 1012.29 1012.17 1012.21 1012.09 1011.89 1011.77 1011.77 1011.73 1011.57 1011.49 1011.53 1011.45 1011.29 1011.17 1010.85 1010.57 1010.41 1010.09 1009.97 1010.01 1009.97 1010.17 1010.33 1010.41 1010.81 1011.17 1011.13 1010.65 1009.89 1008.01 1007.85 1007.37 1007.13 1007.37 1007.65 1007.37 1007.37 1007.73 1008.01 1007.97 1007.65 1007.45 1007.65 1007.25 1007.29 1007.53 1006.89 1006.17
1019.21 1019.25 1019.21 1019.21 1019.13 1019.05 1018.89 1018.49 1018.09 1017.69 1017.21 1016.81 1016.49 1016.29 1016.05 1015.69 1015.29 1014.93 1014.57 1014.21 1013.85 1013.61 1013.21 1012.85 1012.53 1012.25 1012.09 1011.85 1011.73 1011.73 1011.69 1011.61 1011.53 1011.37 1011.25 1011.09 1011.01 1010.97 1010.81 1010.61 1010.49 1010.05 1010.05 1009.93 1009.53 1009.49 1009.53 1009.73 1009.65 1009.73 1009.93 1010.29 1010.29 1009.65 1009.21 1009.01 1007.93 1006.69 1006.57 1006.61 1006.81 1007.17 1007.17 1007.45 1007.53 1007.21 1007.25 1007.25 1007.09 1006.85 1006.61 1005.93 1005.65 1005.57
1019.05 1019.09 1019.17 1019.13 1019.17 1019.13 1018.97 1018.73 1018.45 1018.13 1017.77 1017.29 1016.97 1016.65 1016.37 1016.01 1015.65 1015.33 1014.93 1014.61 1014.33 1013.93 1013.53 1013.09 1012.65 1012.29 1011.97 1011.69 1011.53 1011.29 1011.21 1011.17 1011.05 1010.89 1010.77 1010.65 1010.49 1010.37 1010.29 1010.09 1010.05 1009.89 1009.81 1009.69 1009.53 1009.17 1009.21 1009.09 1008.93 1008.93 1008.85 1008.53 1008.09 1007.81 1007.93 1007.97 1007.21 1006.09 1006.37 1006.53 1006.61 1006.77 1006.69 1006.89 1007.05 1006.85 1006.85 1006.57 1006.57 1006.89 1006.77 1006.45 1006.73 1005.85
1018.89 1018.89 1018.89 1018.89 1018.85 1018.81 1018.73 1018.57 1018.41 1018.13 1017.89 1017.53 1017.17 1016.81 1016.57 1016.29 1015.97 1015.57 1015.25 1015.01 1014.61 1014.13 1013.73 1013.37 1012.97 1012.65 1012.25 1011.81 1011.49 1011.33 1011.21 1010.85 1010.61 1010.41 1010.25 1010.13 1010.05 1010.01 1009.85 1009.85 1009.81 1009.57 1009.65 1009.45 1009.13 1008.93 1008.65 1008.21 1007.85 1007.57 1007.61 1007.57 1007.49 1007.53 1008.17 1008.49 1008.01 1006.53 1006.17 1005.85 1005.69 1005.73 1005.69 1005.81 1006.01 1006.25 1006.33 1005.93 1006.25 1006.53 1006.57 1006.45 1006.33 1006.17
1018.77 1018.77 1018.73 1018.65 1018.65 1018.53 1018.45 1018.33 1018.13 1018.01 1017.77 1017.57 1017.29 1017.01 1016.73 1016.45 1016.17 1015.85 1015.53 1015.05 1014.73 1014.41 1014.13 1013.77 1013.37 1013.05 1012.69 1012.33 1011.93 1011.65 1011.57 1011.29 1010.65 1010.21 1009.97 1009.85 1009.73 1009.53 1009.45 1009.49 1009.45 1009.17 1009.21 1009.09 1008.73 1008.17 1007.49 1007.29 1007.29 1007.33 1007.41 1007.57 1007.89 1008.49 1008.53 1008.21 1007.61 1006.57 1005.77 1005.37 1005.17 1005.05 1005.05 1005.09 1005.17 1005.17 1005.17 1005.41 1005.93 1006.37 1006.17 1005.89 1005.85 1006.17
1018.69 1018.77 1018.77 1018.65 1018.53 1018.45 1018.29 1018.17 1018.05 1017.89 1017.69 1017.45 1017.29 1017.05 1016.77 1016.49 1016.21 1015.93 1015.65 1015.33 1015.05 1014.73 1014.41 1014.05 1013.81 1013.49 1013.09 1012.73 1012.41 1012.17 1011.93 1011.57 1011.09 1010.73 1010.49 1010.21 1009.93 1009.65 1009.37 1009.05 1008.81 1008.61 1008.41 1008.13 1007.65 1007.25 1007.13 1007.13 1007.25 1007.37 1007.41 1007.57 1007.57 1007.69 1007.85 1007.29 1006.81 1006.49 1005.81 1005.33 1005.05 1004.89 1004.77 1004.61 1004.65 1004.69 1004.65 1004.61 1004.65 1004.69 1004.73 1005.05 1005.77 1006.13
1018.85 1018.81 1018.77 1018.61 1018.49 1018.33 1018.17 1018.05 1017.97 1017.85 1017.69 1017.49 1017.25 1017.01 1016.81 1016.57 1016.25 1015.97 1015.77 1015.53 1015.25 1014.97 1014.65 1014.41 1014.05 1013.69 1013.37 1013.05 1012.77 1012.49 1012.21 1011.89 1011.61 1011.37 1011.01 1010.65 1010.37 1010.13 1009.73 1009.25 1008.81 1008.49 1008.13 1007.85 1007.53 1007.17 1006.89 1006.85 1006.85 1006.97 1007.25 1007.21 1007.05 1007.21 1007.13 1006.85 1006.61 1006.21 1005.89 1005.29 1004.77 1004.85 1004.81 1004.45 1004.33 1004.25 1004.13 1004.01 1003.97 1004.01 1003.97 1003.97 1003.73 1003.29
1018.85 1018.77 1018.65 1018.53 1018.41 1018.21 1018.05 1017.93 1017.81 1017.73 1017.61 1017.41 1017.21 1016.97 1016.69 1016.45 1016.21 1015.97 1015.77 1015.61 1015.41 1015.13 1014.85 1014.53 1014.17 1013.89 1013.69 1013.41 1013.21 1012.89 1012.41 1012.17 1011.89 1011.45 1011.13 1010.73 1010.37 1010.01 1009.57 1009.17 1008.89 1008.57 1008.25 1007.81 1007.61 1007.17 1006.85 1006.73 1006.53 1006.49 1006.57 1006.41 1006.33 1006.33 1006.13 1006.09 1005.97 1005.69 1005.33 1005.13 1004.85 1004.33 1004.01 1004.17 1004.53 1004.29 1003.97 1003.53 1002.85 1003.09 1003.33 1003.29 1003.13 1003.09
Wind_Speed
2 2 2 2 3 4 3 3 1 0 1 2 2 2 1 4 2 1 3 2 1 2 1 0 2 2 2 3 3 3 4 5 5 4 4 4 4 7 10 10 10 10 10 11 11 11 11 12 12 10 9 8 7 7 8 7 5 6 7 8 8 7 6 3 3 3 2 3 4 6 7 8 9 10
2 2 3 2 4 3 3 4 3 1 1 2 2 1 3 4 0 3 0 3 3 2 2 1 1 2 4 3 5 2 4 5 4 3 3 3 4 8 10 11 11 10 11 11 11 11 11 12 12 12 11 8 7 7 8 8 7 7 8 9 9 8 6 2 2 3 2 2 3 4 7 8 9 10
2 3 3 3 3 3 3 3 3 1 1 2 1 1 3 1 3 4 2 0 3 2 1 2 2 2 3 3 3 3 3 4 4 3 3 4 6 8 7 10 11 10 10 11 11 11 11 11 12 12 11 9 8 8 8 8 8 8 9 9 10 8 5 3 2 3 2 1 2 3 5 7 8 9
3 3 3 3 3 3 3 3 4 2 0 1 1 1 1 1 2 4 2 2 5 3 4 4 4 3 2 4 3 4 4 4 4 3 4 4 7 6 6 8 11 12 12 11 11 11 11 11 11 12 12 10 9 8 8 9 9 9 9 10 10 9 7 4 3 3 2 0 1 2 4 6 7 8
3 3 4 4 4 2 3 3 3 3 0 1 1 1 1 1 2 2 2 2 4 4 2 2 3 3 3 3 0 3 4 5 5 4 4 4 4 5 6 6 9 12 12 12 11 11 11 11 11 11 12 11 10 10 10 9 10 10 10 11 11 10 8 6 4 4 3 2 1 0 3 4 6 7
4 3 4 4 4 3 3 3 3 3 2 0 0 0 2 2 3 2 1 2 2 4 3 3 3 3 0 2 1 2 4 5 4 6 6 5 3 5 6 6 7 10 12 12 11 11 10 10 10 11 11 11 11 11 11 10 10 10 11 11 11 11 10 8 6 5 5 4 3 1 1 3 5 6
4 3 4 5 4 3 3 3 4 3 3 1 1 3 1 2 3 3 4 3 3 5 5 3 2 3 2 3 4 3 4 4 4 5 6 5 5 4 4 5 6 9 12 12 12 11 11 10 10 10 11 11 11 11 11 11 11 11 11 12 12 12 11 9 7 6 5 5 4 3 2 2 3 5
4 5 4 5 4 3 4 4 4 4 3 3 3 3 3 3 4 3 4 5 4 3 4 3 3 3 2 4 5 4 4 5 5 4 5 4 4 5 5 5 5 8 11 12 12 12 11 11 11 10 10 10 10 10 10 11 11 11 12 13 13 13 12 10 9 8 7 7 6 5 3 2 2 3
5 5 5 6 4 4 4 4 4 5 4 4 3 4 4 4 4 3 3 4 4 4 5 5 3 2 2 4 4 3 4 5 4 3 3 4 5 6 5 5 6 8 11 10 11 11 11 11 10 10 10 10 10 10 10 11 11 12 12 13 13 13 13 12 10 10 9 8 7 7 5 4 2 3
5 5 6 6 5 5 5 6 5 4 4 4 4 4 5 5 4 4 3 3 3 4 6 5 5 2 4 4 4 3 2 4 5 7 6 4 3 3 6 6 5 5 5 5 7 8 8 9 10 10 10 10 10 10 11 11 11 13 13 13 13 14 14 13 12 10 9 8 8 8 7 6 4 4
6 6 6 6 6 6 6 6 6 5 4 4 5 5 5 4 4 5 5 3 3 4 4 4 5 5 3 3 6 2 1 2 3 4 6 8 6 1 1 7 7 5 7 8 10 9 10 10 8 8 9 9 10 11 10 11 12 13 14 13 13 14 14 14 13 11 10 9 9 9 9 7 6 4
7 7 7 7 7 7 7 7 6 6 6 4 5 6 4 4 4 5 5 4 4 4 4 4 6 3 4 3 4 3 2 4 4 3 3 6 8 8 3 3 6 7 6 8 8 7 7 7 8 9 9 10 12 11 10 11 12 13 13 13 13 14 14 14 14 13 11 10 9 10 9 8 7 6
7 7 7 7 7 8 10 12 10 9 8 6 6 7 4 5 5 5 4 5 5 5 4 6 4 4 6 6 6 7 5 6 8 1 1 4 7 6 7 8 5 6 5 6 6 7 6 6 7 6 6 6 7 8 9 8 12 13 13 13 13 14 14 15 14 13 12 11 10 10 10 9 8 7
8 8 7 8 12 14 14 13 14 14 14 13 9 8 6 6 6 6 6 6 6 6 6 7 6 6 7 7 6 5 6 5 3 5 4 4 7 5 6 6 6 3 3 4 6 8 5 4 7 6 7 7 4 6 4 6 7 9 12 12 13 14 14 14 14 14 13 12 11 10 10 10 9 8
9 8 7 7 9 11 11 11 14 14 15 14 14 15 13 10 7 7 7 7 6 6 6 6 5 6 8 9 6 6 7 4 5 6 4 5 4 5 5 8 8 2 3 3 3 8 4 3 6 7 7 7 7 6 7 10 11 13 13 13 13 13 13 14 14 14 13 12 11 11 11 11 10 9
8 8 7 6 6 6 8 8 7 9 12 14 14 14 14 14 14 11 9 8 6 5 7 7 8 6 7 9 6 7 4 7 5 6 5 5 5 6 5 5 6 5 2 3 6 10 5 3 6 7 8 7 6 7 9 12 12 12 13 13 13 13 13 13 14 14 13 12 12 12 12 12 11 10
9 8 7 7 6 7 11 9 7 7 8 11 13 13 13 13 13 14 15 13 10 7 6 7 9 8 7 7 8 5 4 3 5 5 5 5 5 6 6 7 6 10 3 3 4 8 10 2 4 7 10 7 5 7 9 12 13 13 13 13 13 13 13 13 13 13 13 12 13 13 13 12 12 11
9 9 9 8 8 7 7 7 7 7 7 8 7 7 6 7 9 11 13 15 16 12 9 8 10 11 6 10 10 8 4 4 8 7 8 6 6 6 9 7 7 9 2 5 3 7 12 6 4 7 10 7 5 6 9 12 13 13 13 13 13 13 13 13 13 13 12 13 13 14 13 13 13 12
10 10 9 9 10 9 7 7 9 8 9 8 8 7 8 8 7 6 6 6 7 8 8 10 12 12 10 9 10 9 6 7 9 8 8 6 5 6 4 4 6 9 6 4 3 7 9 2 2 8 9 7 7 7 8 12 13 13 13 13 13 13 13 13 13 13 13 13 14 14 14 13 13 13
9 9 9 8 9 10 9 11 14 12 9 6 7 8 9 9 8 7 9 12 10 9 9 9 11 11 12 12 11 10 7 6 6 5 2 2 3 5 6 8 7 7 5 5 5 4 7 6 4 8 7 4 8 9 7 10 12 13 13 11 11 11 11 12 13 13 13 13 14 14 14 14 14 13
8 8 7 8 9 9 9 13 14 14 11 7 8 9 10 9 8 9 8 11 15 16 16 17 17 16 16 15 14 14 14 10 6 1 4 9 7 7 9 9 6 9 6 2 6 5 8 7 5 7 6 5 7 9 9 7 8 9 8 7 8 9 10 11 12 12 12 13 14 14 14 14 13 13
6 7 11 10 8 9 11 14 14 14 8 7 9 9 10 10 11 10 9 8 9 13 15 16 16 16 16 15 15 15 15 16 8 6 10 11 5 7 7 9 8 8 6 8 6 2 9 5 3 5 5 4 5 7 8 7 6 5 5 6 7 8 8 10 11 11 11 13 14 14 14 13 12 7
6 7 9 12 12 10 12 15 14 14 9 7 8 9 9 11 11 11 9 9 11 8 6 7 6 7 10 10 9 11 16 17 10 9 11 8 6 9 10 9 8 9 8 6 8 5 7 4 4 4 3 3 6 5 6 7 6 5 4 5 5 7 7 8 9 10 11 12 13 13 13 13 11 6
7 8 8 10 12 14 15 15 16 15 12 9 9 8 9 11 14 10 8 9 9 8 7 8 5 7 6 6 5 6 7 8 8 10 9 9 8 9 10 9 8 9 7 3 6 7 4 2 5 3 6 5 5 3 2 4 5 5 4 4 5 6 5 6 7 10 11 11 12 12 13 13 12 6
6 6 6 6 8 11 13 14 15 15 15 12 9 9 10 12 13 8 5 6 7 6 5 5 5 6 5 6 6 7 7 8 7 6 8 9 9 10 10 10 9 11 11 8 8 4 5 3 5 0 3 3 5 6 4 4 7 7 6 6 7 6 3 5 3 5 7 10 12 13 12 14 16 11
6 6 6 6 8 10 9 9 9 10 10 10 6 11 15 16 15 10 6 5 5 6 6 7 7 7 7 7 7 7 8 8 7 7 7 9 10 10 11 11 11 10 12 6 14 9 7 6 8 7 4 3 8 5 8 8 8 8 3 4 6 6 5 5 4 6 6 5 6 10 12 15 15 16
5 5 5 4 8 11 10 10 10 9 8 6 8 14 14 15 16 11 7 7 6 7 8 8 9 9 8 8 9 8 8 8 7 8 8 8 8 9 10 11 12 13 13 7 6 7 7 6 3 6 8 5 7 8 6 8 8 2 5 6 6 5 4 4 6 7 6 6 7 7 8 9 13 14
6 6 6 7 13 14 14 14 13 13 11 9 12 12 13 14 11 7 7 6 7 7 7 8 9 10 9 8 8 9 8 8 7 8 8 8 9 9 10 11 13 13 12 10 7 6 7 8 8 6 7 8 9 10 12 9 8 8 9 4 3 5 5 6 8 7 5 5 5 5 5 6 8 8
3 5 9 12 11 11 11 12 11 9 10 12 13 14 13 9 5 6 6 7 6 7 8 9 9 9 10 9 10 8 7 7 5 5 7 8 9 9 10 10 10 10 8 8 8 8 8 8 10 7 5 7 9 11 9 13 10 10 6 5 8 6 7 7 7 7 7 6 7 7 9 9 7 8
9 10 11 12 11 10 9 7 5 5 7 10 12 12 10 5 6 5 6 6 6 8 8 8 9 9 8 8 8 7 6 6 8 7 8 8 8 7 8 9 11 10 9 8 8 7 8 8 9 8 9 9 9 11 12 11 12 12 9 9 10 7 7 8 8 9 8 8 8 9 9 8 8 7
6 8 8 7 9 10 12 12 10 8 9 7 6 5 4 5 5 6 6 6 7 7 7 8 8 8 8 7 7 9 8 9 10 7 7 7 9 7 6 7 12 11 7 6 7 7 8 9 9 9 10 10 9 11 11 9 12 13 11 8 6 10 5 5 8 8 8 9 7 7 6 6 7 9
7 7 8 9 7 6 5 5 5 5 5 6 5 5 5 5 6 7 9 8 7 8 8 8 8 8 7 8 9 8 8 9 9 6 5 7 9 7 5 7 11 10 9 6 6 7 8 8 9 8 10 10 11 11 8 9 12 13 12 9 8 11 11 10 8 7 7 6 6 9 9 8 9 9
5 5 6 6 6 5 6 5 5 5 5 6 6 6 5 5 5 5 5 6 8 8 7 8 9 9 8 9 8 8 8 9 9 6 6 7 8 7 5 8 10 10 11 11 8 6 6 7 7 9 9 10 11 12 10 11 12 10 11 11 9 12 11 9 8 8 4 5 8 8 9 9 10 11
4 6 7 7 7 8 7 7 6 6 6 6 7 6 5 6 5 5 6 6 7 7 8 8 8 9 9 10 9 8 9 9 8 7 7 8 6 7 7 8 10 9 9 10 10 8 5 5 6 7 8 9 9 11 11 12 13 9 9 9 10 13 12 8 8 8 8 9 9 9 10 10 10 10
4 6 6 7 7 7 7 7 7 7 7 7 7 7 6 6 6 6 6 6 6 7 7 7 8 8 8 9 9 9 9 9 8 6 6 6 7 7 8 9 10 9 9 9 10 8 6 6 5 6 6 6 8 10 13 14 11 12 10 12 10 11 12 9 8 7 8 9 6 9 11 10 10 9
7 7 8 8 8 8 9 9 9 9 8 8 7 7 7 6 5 6 6 6 7 7 7 7 7 8 8 9 9 9 9 8 8 8 7 7 7 8 7 9 9 10 9 9 10 8 6 7 5 7 9 9 8 12 12 16 20 11 11 12 11 10 11 10 8 8 8 8 7 8 11 13 12 9
6 7 7 7 7 7 8 9 8 9 10 11 11 11 10 9 8 7 7 7 7 7 8 8 8 8 8 8 8 8 8 8 9 8 8 8 7 8 8 9 9 9 9 10 8 9 6 7 6 7 8 9 10 11 15 1 16 20 11 11 12 10 10 9 8 9 8 9 9 9 12 11 13 12
6 6 7 8 8 8 9 9 9 9 8 8 8 8 9 9 10 11 12 10 8 8 8 8 8 9 9 9 9 9 9 8 8 9 9 8 8 8 8 9 9 9 9 9 8 8 7 8 8 7 7 9 10 11 14 12 8 9 15 13 11 10 7 7 8 9 10 7 11 11 9 11 13 14
4 6 7 7 7 8 9 9 9 9 9 9 9 9 9 10 10 10 10 9 10 10 10 9 8 8 9 9 9 9 9 9 9 9 8 8 8 9 9 9 10 9 9 10 9 8 7 8 9 8 8 9 11 11 10 12 15 11 8 19 13 10 8 7 9 9 9 9 8 8 9 11 10 11
2 3 4 5 6 7 8 8 9 9 10 9 9 9 9 9 10 10 9 10 10 11 9 9 10 9 8 8 9 9 8 10 10 9 9 9 9 9 9 9 9 9 9 10 10 9 8 9 9 9 9 11 11 10 9 9 12 13 9 7 14 12 11 6 9 10 10 9 6 7 10 8 9 8
1 2 3 3 5 6 7 7 7 8 9 9 10 10 9 9 10 9 9 10 10 10 10 10 10 10 10 9 8 8 9 9 9 9 9 9 10 10 11 10 10 9 10 11 11 11 11 9 9 12 11 8 8 4 6 10 14 15 11 8 12 19 19 15 12 10 11 8 6 8 10 11 10 8
2 3 3 3 4 6 6 6 7 7 8 8 9 9 9 9 9 12 11 11 9 9 9 9 10 10 10 9 10 9 8 9 9 9 9 9 9 9 11 10 10 10 10 11 12 12 10 6 7 8 7 7 5 7 10 12 15 15 13 10 6 11 18 20 19 17 15 11 9 9 9 9 7 9
3 3 4 4 4 5 6 6 6 7 8 8 8 8 9 9 9 9 8 9 9 9 9 9 9 9 9 9 9 9 8 8 8 8 9 9 9 9 9 9 10 10 11 11 11 11 10 8 5 6 6 6 8 8 10 12 12 13 14 12 11 7 7 12 17 20 20 21 19 16 13 10 6 8
3 4 4 5 5 5 6 6 7 7 8 8 8 8 8 8 9 8 8 8 9 9 9 9 9 9 9 9 9 9 8 9 9 9 9 9 9 10 10 10 10 10 10 10 11 11 10 9 8 8 8 9 8 8 10 11 12 12 13 13 12 9 10 7 7 10 14 17 21 22 23 21 19 20
3 4 5 5 5 5 6 6 6 7 7 8 8 8 8 8 8 8 8 8 8 9 9 9 9 9 9 9 9 10 10 10 10 9 8 9 9 9 9 9 9 10 10 9 10 10 10 8 8 7 9 10 9 10 11 11 12 12 12 12 14 13 12 7 6 10 10 10 13 18 19 21 23 24
Wind_Direction
275 301 304 293 295 299 289 296 303 227 150 157 164 161 150 159 99 329 346 289 266 314 2 71 305 342 325 310 274 281 280 284 294 293 284 281 276 274 276 280 281 278 275 272 270 268 268 268 268 266 261 260 252 258 268 277 271 259 260 264 275 282 288 290 313 319 341 2 352 346 341 340 337 335
268 274 297 310 313 297 306 294 287 270 208 163 196 189 156 140 150 176 215 281 212 264 309 201 275 327 331 330 334 324 308 305 302 289 287 281 277 285 290 289 285 281 279 279 278 275 271 268 268 269 268 261 249 246 254 268 259 257 257 259 268 274 278 260 286 310 334 1 2 349 340 341 338 334
256 271 279 291 296 304 316 304 292 294 183 204 179 178 142 142 134 148 135 6 285 180 277 291 249 247 294 316 320 323 321 336 348 336 314 292 281 284 284 282 282 280 279 279 279 278 274 269 267 267 266 260 247 242 239 253 254 250 248 253 260 266 260 256 260 288 300 357 5 349 339 340 336 332
249 252 269 272 270 298 317 305 294 298 328 165 147 149 153 123 140 130 130 177 266 249 222 265 292 266 271 305 336 326 334 329 346 331 313 301 308 309 301 300 298 298 295 287 280 279 277 270 266 264 262 259 253 244 243 249 249 246 245 249 256 261 261 255 239 252 252 170 21 347 335 337 334 328
241 243 252 267 267 265 301 293 288 298 210 150 122 134 135 147 163 137 148 210 272 299 252 251 270 302 341 319 282 330 320 323 321 319 293 293 297 296 293 294 297 293 292 290 286 282 279 273 266 263 261 258 253 248 249 249 250 248 246 247 251 257 257 249 236 230 227 178 164 328 326 333 330 328
238 232 242 266 273 258 262 280 282 257 282 29 81 162 172 197 221 190 165 218 218 271 312 309 303 303 205 266 272 245 295 301 311 312 312 306 286 294 303 302 294 287 284 285 284 282 279 276 268 263 261 258 255 250 251 254 256 255 252 249 249 253 255 249 237 218 209 189 181 186 304 321 327 325
235 239 239 252 254 256 256 265 259 239 246 234 245 264 197 221 240 204 178 164 238 263 273 239 268 261 271 207 269 262 239 260 270 288 300 310 314 306 293 292 289 287 287 287 288 287 287 281 272 265 262 260 257 257 260 259 259 260 259 253 249 249 251 247 238 226 217 192 186 190 233 306 319 325
234 237 247 251 247 248 248 259 262 258 233 230 241 246 248 216 241 223 183 198 208 225 255 281 219 252 229 274 257 261 262 259 273 250 278 296 302 306 307 296 292 296 299 295 288 285 285 281 272 265 262 263 262 261 261 260 259 257 257 256 253 249 249 246 240 234 225 203 182 189 204 258 298 323
231 237 238 249 247 240 249 259 254 252 251 247 234 243 250 239 240 230 200 208 196 216 248 272 274 272 272 251 267 247 273 297 290 287 278 291 297 302 293 291 288 293 298 296 290 281 278 278 271 263 261 262 263 260 256 256 258 259 258 257 257 255 250 247 241 235 228 212 191 180 187 211 254 280
225 231 237 245 243 240 236 250 252 248 251 259 252 250 256 250 246 246 251 215 204 207 238 239 288 297 266 304 280 264 231 275 302 312 304 299 274 276 313 306 303 310 305 310 308 298 287 278 268 264 264 265 265 262 258 256 256 257 258 257 257 257 255 250 244 238 229 213 199 186 187 199 220 244
226 226 233 237 236 236 235 242 245 245 250 247 255 249 249 248 241 252 256 242 222 219 241 257 232 262 268 231 278 294 219 252 236 272 313 312 307 286 259 303 309 310 310 297 285 278 275 278 275 262 258 260 261 261 260 259 258 258 257 256 256 257 256 253 248 241 232 218 202 190 187 195 205 223
231 229 230 231 231 230 235 234 241 230 241 237 251 252 243 246 239 252 261 270 257 259 257 251 273 248 271 293 261 288 344 315 297 194 229 275 293 308 311 267 295 303 308 303 308 306 293 283 268 263 262 260 257 256 258 257 255 257 257 255 253 255 255 254 250 243 235 224 207 193 188 192 199 211
236 236 233 234 231 228 232 229 231 233 224 226 242 253 227 237 230 245 249 246 256 259 256 278 267 277 291 275 284 299 292 265 259 283 140 269 276 288 307 298 276 249 266 285 291 289 278 290 284 284 286 264 245 246 237 257 254 255 254 251 250 252 252 252 250 246 237 226 213 197 192 194 198 202
237 236 234 238 236 235 235 234 235 237 238 236 229 239 228 228 229 236 245 250 241 242 254 254 263 280 273 272 264 258 259 265 292 295 261 263 285 312 293 284 267 264 268 283 288 274 273 260 280 279 277 278 260 267 243 244 242 250 247 246 246 246 248 248 247 246 240 228 215 202 195 197 199 201
239 240 238 238 244 244 244 240 235 235 238 241 242 243 242 230 217 232 242 247 240 241 244 253 253 246 263 268 259 252 266 271 253 258 263 258 282 284 300 302 306 274 196 267 267 288 263 216 267 277 267 272 277 257 252 255 252 252 256 255 249 245 244 244 243 243 240 228 216 206 199 198 201 201
241 243 244 243 239 238 238 243 251 247 244 243 245 245 246 249 246 238 231 244 255 234 241 251 245 241 247 261 265 264 251 262 263 248 239 243 249 271 270 264 266 259 152 269 291 287 277 188 245 274 272 265 258 257 256 259 261 260 259 259 256 249 244 241 241 240 236 226 215 209 204 201 201 202
239 241 245 252 247 249 246 244 243 245 256 256 251 251 254 254 248 248 248 245 241 244 233 240 254 238 243 254 259 240 232 218 250 265 255 249 240 232 250 256 263 280 193 212 263 278 285 186 258 278 279 271 259 267 262 258 262 265 262 261 259 253 245 239 238 237 232 224 213 209 206 203 202 203
235 235 236 242 250 246 246 247 245 244 246 252 259 259 252 249 254 247 238 240 243 241 240 241 248 253 218 243 252 252 224 240 258 262 262 259 266 257 249 253 252 268 156 232 265 282 281 280 261 267 277 282 277 263 262 263 264 264 263 262 261 256 247 239 235 232 227 221 213 207 205 203 204 205
234 236 233 234 241 248 241 237 233 238 243 245 250 255 257 251 248 245 241 231 225 226 225 235 242 251 250 246 252 258 238 230 248 251 260 261 253 270 296 311 263 277 251 198 179 251 269 283 248 266 271 289 285 272 274 265 262 263 263 261 260 255 246 239 234 229 223 218 213 208 204 202 204 207
234 236 235 234 240 244 246 246 238 235 238 240 249 254 258 262 257 251 242 237 233 225 221 222 231 239 243 242 247 252 252 247 253 268 325 345 295 292 292 275 289 281 275 163 193 248 267 255 228 269 277 285 283 281 277 273 265 265 266 266 260 253 244 238 234 229 222 217 214 209 204 201 204 207
239 239 235 234 243 250 251 251 244 240 233 241 245 249 256 259 264 265 263 240 235 235 234 235 238 243 249 254 260 266 268 256 256 281 301 271 260 270 276 274 268 267 279 232 193 230 268 255 217 267 271 266 273 278 275 273 266 264 269 267 262 253 245 236 233 230 224 219 215 211 204 201 203 206
248 242 241 236 236 244 253 257 255 251 234 235 243 248 254 261 262 263 263 269 254 234 235 241 245 250 257 259 262 263 262 258 234 200 242 252 250 258 246 270 266 280 280 259 152 203 252 278 207 241 292 321 254 259 263 265 268 250 259 264 264 262 250 242 236 229 225 220 217 212 204 200 197 200
247 252 252 247 242 240 249 255 259 259 241 238 244 248 253 259 260 257 259 261 268 271 272 264 251 256 245 245 243 248 247 249 233 212 230 248 235 253 259 260 280 289 269 250 160 205 272 261 251 186 306 292 272 261 256 265 270 262 252 255 266 252 246 245 238 232 229 223 219 214 205 198 185 203
252 248 253 252 247 243 247 252 256 258 246 236 249 249 252 256 261 261 257 255 261 271 265 268 263 259 264 263 254 255 257 247 226 220 220 224 224 236 251 250 242 250 259 266 177 193 263 189 268 198 208 255 289 288 325 285 241 237 225 242 255 249 216 234 243 234 232 227 224 218 209 199 189 198
262 266 260 263 263 255 250 250 255 257 257 245 247 250 250 248 257 280 277 270 269 270 270 266 267 263 260 258 255 257 257 255 247 224 214 216 215 221 235 244 245 252 253 244 165 193 247 197 256 109 279 227 253 289 280 282 272 251 226 212 246 245 194 232 226 243 227 229 228 222 215 206 202 201
286 281 287 284 281 302 325 324 307 291 284 275 251 251 251 265 278 279 274 283 285 276 278 278 276 272 266 264 258 251 249 250 248 239 227 215 218 220 226 232 239 255 259 223 175 207 224 258 242 255 245 225 272 241 280 280 265 265 248 235 230 242 195 226 209 240 225 212 221 217 219 214 211 214
290 293 290 289 1 352 331 325 316 305 290 270 245 252 260 263 266 273 269 260 263 264 266 269 270 269 264 263 263 259 260 253 242 243 240 236 223 227 233 234 235 243 255 252 184 206 202 240 203 203 251 233 264 278 256 272 281 341 314 258 252 248 225 206 227 236 220 214 230 212 217 221 224 225
297 302 313 323 323 319 318 309 304 293 282 265 265 260 255 254 259 256 257 246 242 247 255 257 259 260 257 254 258 256 252 254 246 243 247 247 239 234 237 236 239 243 249 254 239 217 211 238 251 224 224 249 255 262 274 261 256 266 269 270 249 250 222 212 235 241 234 217 219 201 184 219 220 213
261 279 290 295 295 294 293 287 285 286 277 268 262 261 259 258 243 236 234 241 235 235 239 243 250 257 257 251 254 259 256 256 256 250 250 244 245 244 245 248 245 244 238 239 237 228 225 232 249 251 234 231 243 256 253 265 273 270 244 272 280 238 223 221 225 231 235 211 219 204 212 218 210 197
281 275 272 273 275 274 269 274 280 283 283 283 282 275 266 246 241 235 236 238 230 238 242 243 246 251 259 260 259 261 259 256 253 247 254 257 258 250 255 267 264 251 242 239 231 217 214 224 232 240 246 244 236 252 256 263 267 264 258 245 259 281 233 207 213 224 220 222 218 216 227 212 217 177
324 306 293 280 273 268 269 269 263 262 276 282 277 266 241 232 235 235 229 236 240 245 247 247 247 251 253 262 271 264 260 260 262 249 252 259 263 261 256 260 272 275 258 238 227 216 212 219 225 222 237 249 244 238 253 250 260 266 262 239 217 244 242 192 224 220 216 225 226 228 228 215 218 212
305 302 297 285 268 259 261 263 271 265 254 255 263 259 245 240 235 238 238 240 246 255 259 265 268 266 263 262 260 265 262 261 265 252 236 250 263 259 259 266 270 276 279 262 240 226 220 220 227 226 228 241 253 257 242 241 248 256 264 252 237 251 252 245 238 231 218 212 230 236 230 214 216 216
307 312 305 307 302 295 287 286 282 283 282 276 260 259 252 240 237 235 226 236 241 245 251 259 263 268 271 268 265 265 266 262 263 251 243 248 253 264 237 253 268 276 281 281 267 243 223 239 230 233 234 237 239 248 254 261 254 247 256 260 252 255 254 244 241 239 163 193 232 240 246 233 226 221
308 326 331 329 324 318 313 304 298 294 290 287 284 276 265 253 248 241 238 238 248 245 245 252 257 261 265 269 269 266 264 269 262 248 230 253 238 247 248 253 260 262 263 271 274 273 253 235 239 248 251 251 250 242 238 245 261 260 248 255 248 256 257 250 240 226 195 210 219 236 244 250 239 232
348 336 328 327 324 318 311 305 302 299 295 291 285 281 278 265 256 249 247 251 246 246 248 247 248 255 257 262 265 266 264 264 267 263 239 241 244 242 250 252 261 264 263 268 272 273 268 261 245 265 268 267 273 264 224 226 254 255 258 254 251 253 263 253 249 237 223 232 215 242 255 254 253 232
2 358 351 344 345 342 339 337 329 322 314 306 299 294 289 287 277 266 263 250 246 250 251 251 253 251 251 254 257 258 261 261 264 262 260 246 246 248 247 251 258 264 261 261 267 271 262 265 247 257 273 280 281 289 283 198 209 230 242 256 250 250 253 255 242 240 235 235 217 225 247 254 258 248
360 357 350 344 343 346 341 336 338 337 336 340 339 337 331 325 322 308 288 269 266 264 260 262 263 260 256 256 258 256 258 256 262 259 256 254 248 250 254 257 255 257 263 258 255 263 244 252 237 238 258 267 275 274 276 177 217 221 220 240 255 246 252 253 247 247 236 226 236 222 237 249 256 259
6 357 350 347 343 342 336 331 329 328 330 331 332 332 333 330 330 330 332 324 306 290 275 264 260 260 261 262 263 265 265 256 254 257 254 252 250 253 250 257 263 258 259 261 253 248 233 237 237 234 227 252 268 269 284 288 279 249 214 230 250 254 242 253 252 250 250 220 231 236 231 245 247 249
16 5 353 345 340 336 329 327 325 322 323 322 325 328 326 326 325 327 325 323 329 328 321 308 290 277 269 266 261 262 266 266 260 253 253 251 246 252 256 255 260 262 263 265 261 251 236 232 234 225 219 231 243 253 261 279 276 282 216 212 231 253 246 231 252 250 252 252 239 245 244 247 277 284
21 4 346 334 328 323 320 318 319 318 317 319 320 321 322 321 324 321 320 326 325 316 308 307 309 303 287 277 269 263 257 256 259 259 258 257 257 253 256 258 258 263 266 265 267 261 242 240 230 223 222 228 241 249 263 268 280 281 273 240 209 219 244 242 246 253 258 246 243 244 253 254 246 254
344 337 321 317 306 314 313 315 312 313 312 315 317 319 319 319 316 314 320 317 312 314 318 319 316 319 319 318 306 289 276 269 260 258 257 255 254 255 254 255 258 255 257 261 263 264 257 249 242 233 232 246 253 303 293 279 270 275 273 256 209 215 224 222 237 249 254 253 225 237 253 254 255 254
303 292 295 298 301 305 309 304 310 308 309 312 315 316 315 314 311 314 313 312 317 318 317 317 322 324 320 319 320 322 320 303 294 278 266 260 259 254 248 245 252 255 251 256 260 263 266 247 243 241 236 239 249 240 250 256 269 275 277 272 258 213 221 228 228 233 240 246 247 253 253 265 259 260
309 310 301 302 301 301 301 305 302 304 304 308 310 311 310 310 310 315 316 316 317 318 318 319 319 316 315 317 319 319 313 309 314 325 325 318 307 289 278 262 252 250 249 253 256 263 266 260 241 244 237 228 233 227 248 256 262 272 279 282 274 265 244 230 229 234 239 241 238 238 241 243 241 250
298 291 291 295 301 301 300 300 302 300 303 304 304 305 306 308 309 311 313 314 315 314 316 311 311 312 317 320 320 316 315 318 322 316 307 301 296 296 298 298 291 280 272 264 265 264 264 261 250 238 244 242 236 233 243 254 263 263 268 273 278 277 264 256 241 238 244 245 245 243 246 248 243 248
283 278 281 289 291 298 299 299 299 303 303 303 303 302 303 302 301 305 307 310 309 310 308 310 313 317 318 319 321 315 313 313 309 304 300 296 294 293 289 289 291 293 286 282 277 273 269 263 255 242 241 246 242 239 245 246 256 267 266 266 276 274 271 258 261 266 258 265 241 230 239 243 246 249